DELTA 1 DEB

Satellite information

Favourite Embed

Satellite Type and Status

DEBRISIN ORBIT

Key statistics

Satellite DELTA 1 DEB at a glance.

Uptime

20942

Days in orbit

Revolutions

≈ 12.8

Per day

Orbit

SSO

Sun Synchronous Orbit

Inclination

106.1

Latest

Satellite identification and parameters

Extended collection of information and parameters for DELTA 1 DEB.

Object identification

Identified? True

Debris? True

Object name: DELTA 1 DEB

International designator: 1968-002C

Object number (NORAD): 3126

Object ID (CCSDS): 3126

Country: UNITED STATES OF AMERICA (US)

Current information (Y/N): Y

RCS size: SMALL

Orbital parameters

Period: 112.286 minutes

Inclination: 106.0627 deg

SMA: 7709.794 km

Apoapsis: 1579.122 km

Periapsis: 1084.197 km

RAAN: 264.0102 deg

Eccentricy: 0.0320972

Argument of periapsis: 81.5194 deg

Mean anomaly: 299.9206 deg

Mean motion: 12.82444451 rev/day

Mean motion (dot): -0.0000005 rev/day2

B* drag term: 0.00008785 1/REarth

Two-line elements (TLE)

Creation date: May 10, 2025, 5:27 p.m.

Reference frame: TEME

Reference center: EARTH

Epoch: May 9, 2025, 3:26 p.m. UTC

TLE line 0: 0 DELTA 1 DEB

TLE line 1: 1 03126U 68002C 25129.64361527 -.00000050 00000-0 87850-4 0 9999

TLE line 2: 2 03126 106.0627 264.0102 0320972 81.5194 299.9206 12.82444451682550

Live tracking on map

Real-time ground track for satellite DELTA 1 DEB.

In-orbit conjunctions

A list of the most updated potential collisions computed for object DELTA 1 DEB.

Target Orbit TCA Probability of collision Miss distance Type
COSMOS 397 DEB LEO 2024-08-21 03:23:25 0.0008739823 13.0 (m) DEBRIS

Associated space launch

The GEOS 1 (Geodetic Earth Orbiting Satellite) spacecraft was a gravity-gradient-stabilized, solar-cell powered unit designed exclusively for geodetic studies.

DELTA 1 DEB was lifted into orbit during the mission ‘Thor Delta E1 | GEOS B’, on board a Thor Delta E1 space rocket.

The launch took place on Jan. 11, 1968, 4:16 p.m. from Space Launch Complex 2E.

For more information about the launch, click the button.

Launch to space Thor Delta E1 | GEOS B
Thor Delta E1 | GEOS B

Agency: N/A

Status: Launch Successful

Launch date: Jan. 11, 1968, 4:16 p.m. UTC

Rocket: Thor Delta E1

Launch pad: Space Launch Complex 2E

Location: Vandenberg SFB, CA, USA

...

Latest news about this satellite

There are no fresh news available about this satellite. Check back as we update our databases every day.


Newsletter sign-up

Weekly statistics, charts and insights to help you stay on top of the space industry.